Regional Weather Roundup
Issued by NWS Newport/Morehead, NC

Current Version | Previous Version | Graphics & Text | Print | Product List | Glossary Off
Versions: 1 2 3 4 5 6 7 8 9 10 11 12 13 14 15 16 17 18 19 20 21 22 23 24 25 26 27 28 29 30 31 32 33 34 35 36 37 38 39 40 41 42 43 44 45 46 47 48 49 50

000
ASUS42 KMHX 281425
RWRMHX
WEATHER ROUNDUP FOR EASTERN NORTH CAROLINA
NATIONAL WEATHER SERVICE NEWPORT/MOREHEAD CITY NC
1000 AM EDT SAT MAY 28 2016

NOTE: "FAIR" INDICATES FEW OR NO CLOUDS BELOW 12,000 FEET
WITH NO SIGNIFICANT WEATHER AND/OR OBSTRUCTIONS TO VISIBILITY

NCZ015>017-031-032-045>047-102-103-281500-
NORTH COAST

CITY           SKY/WX    TMP DP  RH WIND       PRES   REMARKS
EDENTON        SUNNY    N/A N/A N/A SE6       30.20F
ELIZABETH CITY MOSUNNY   77  67  71 SE6       30.21R
KITTY HAWK     SUNNY     78  66  65 E5        30.20S
MANTEO         NOT AVBL

$$

NCZ045>047-081-094-103-104-281500-
CENTRAL COAST

CITY           SKY/WX    TMP DP  RH WIND       PRES   REMARKS
FRISCO         MOSUNNY   80  69  69 SE10      30.19R

$$

NCZ095-097-098-100-101-281500-
SOUTHERN COAST

CITY           SKY/WX    TMP DP  RH WIND       PRES   REMARKS
BEAUFORT       PTSUNNY   78  68  71 E10       30.17R
CEDAR ISLAND   NOT AVBL
JACKSONVILLE   MOSUNNY   78  66  66 E8        30.16R
PINEY ISLAND   SUNNY    N/A N/A N/A E12       30.17
WILMINGTON     MOSUNNY   79  68  69 E13       30.16R


$$

NCZ011>013-027>030-043-044-078>080-089-090>093-098-281500-
COASTAL PLAIN

CITY           SKY/WX    TMP DP  RH WIND       PRES   REMARKS
AHOSKIE        MOSUNNY   75  65  70 E3        30.20F
CLINTON        MOSUNNY   78  69  75 CALM      30.19R
ELIZABETHTOWN  MOSUNNY   78  67  70 E3        30.17S
GOLDSBORO      PTSUNNY  N/A N/A N/A MISG        N/A
GREENVILLE     MOSUNNY   79  66  65 E5        30.20S
HAVELOCK       PTSUNNY   82  68  62 E12       30.17S
KENANSVILLE    PTSUNNY   78  66  66 CALM      30.19R
KINSTON        MOSUNNY   79  68  69 SE5       30.19S
NEW BERN       MOSUNNY   79  68  69 E7        30.18S
RICHLANDS      MOSUNNY   78  69  73 E10       30.17S
ROCKY MOUNT    CLOUDY    77  67  71 VRB3      30.19F
WASHINGTON     SUNNY     79  67  65 E7        30.19S
WHITEVILLE     PTSUNNY   78  69  73 NE7       30.16S

$$

AMZ130-135-150-152-154-156-158-170-250-252-270-ANZ085-086-088-633-658-670-281500-
MARINE OBSERVATIONS

STATION/POSITION TIME  TEMP    WIND        PRES    WAVE   SWELL
                       AIR SEA DIR/SP/G            HT/PER HT/PER
                 (UTC) (F)     (DEG/KT/KT) (MB)    (FT/S) (FT/S)
CHESAPEAKE LIGHT 1400   69     150/  5/  5 1023.8
64 E VA BEACH    1350   67 62   50/  4/  4 1022.9    3/ 8   3/ 8
DUCK             1400   70 60   80/  7/  7 1022.3
2 E DUCK         1311      64                N/A     2/ 7
OREGON INLET     1400   73 72   60/  8/ 10 1022.5
13E OREGON INLT  1400      71                N/A     4/ 9   3/ 9
HATTERAS CG      1400   77 74  120/  7/ 10 1021.7
DIAMOND BUOY     1350   77 78  100/ 12/ 14 1021.7    4/ 8   3/ 8
CAPE LOOKOUT     1400   75      90/  9/ 10 1021.2
BEAUFORT LAB     1400   78 73   90/ 10/ 16 1020.7
30 SE NEW RVR IN 1325      74                N/A     5/10
27 SE WRIGHTSVLE 1408   77 74   90/ 10/ 14 1020.4
5 SE WRIGHTSVLE  1408   75 74   50/ 12/ 16 1021.5
225 S CAPE HAT   1350   77 77   90/ 17/ 21 1018.9    4/ 7   2/ 7
41 SE CHARLESTON 1350   75 76   50/ 16/ 17 1018.1    6/ 9   5/ 9

$$



USA.gov is the U.S. government's official web portal to all federal, state and local government web resources and services.